This is the latest recevied weather packets stored in our database for station/object N6RDS. If no packets are shown the sender has not sent any weather packets the latest 10 day(s).
| Time | Temp. | Humidity | Pressure | Rain* | Wind** | Luminosity | Snow |
|---|---|---|---|---|---|---|---|
| 1777781910 | 11.67° C | 35% | 1027.2 hPa | 0 mm | - | 0 W/m² | - |
| 1777781608 | 11.67° C | 34% | 1027.1 hPa | 0 mm | - | 0 W/m² | - |
| 1777781306 | 11.67° C | 33% | 1026.9 hPa | 0 mm | - | 0 W/m² | - |
| 1777781003 | 12.22° C | 34% | 1026.9 hPa | 0 mm | - | 0 W/m² | - |
| 1777780700 | 11.67° C | 34% | 1027 hPa | 0 mm | - | 0 W/m² | - |
| 1777780397 | 11.67° C | 35% | 1026.9 hPa | 0 mm | - | 0 W/m² | - |
| 1777780094 | 11.11° C | 35% | 1027 hPa | 0 mm | - | 0 W/m² | - |
| 1777779791 | 11.11° C | 35% | 1026.8 hPa | 0 mm | - | 0 W/m² | - |
| 1777779489 | 11.11° C | 35% | 1026.8 hPa | 0 mm | - | 0 W/m² | - |
| 1777779186 | 11.11° C | 35% | 1026.6 hPa | 0 mm | - | 0 W/m² | - |
| 1777778884 | 11.11° C | 35% | 1026.8 hPa | 0 mm | - | 0 W/m² | - |
| 1777778583 | 11.67° C | 34% | 1026.8 hPa | 0 mm | - | 0 W/m² | - |
| 1777778279 | 11.67° C | 34% | 1026.6 hPa | 0 mm | - | 0 W/m² | - |
| 1777777977 | 11.67° C | 33% | 1026.5 hPa | 0 mm | - | 0 W/m² | - |
| 1777777673 | 11.67° C | 33% | 1026.6 hPa | 0 mm | - | 0 W/m² | - |
| 1777777370 | 12.22° C | 34% | 1026.3 hPa | 0 mm | - | 0 W/m² | - |
| 1777777067 | 12.22° C | 33% | 1026.4 hPa | 0 mm | - | 0 W/m² | - |
| 1777776764 | 12.78° C | 32% | 1026.3 hPa | 0 mm | - | 0 W/m² | - |
| 1777776461 | 13.33° C | 31% | 1026.3 hPa | 0 mm | - | 0 W/m² | - |
| 1777776158 | 13.89° C | 31% | 1026.1 hPa | 0 mm | - | 0 W/m² | - |
| 1777775855 | 13.89° C | 30% | 1025.9 hPa | 0 mm | - | 0 W/m² | - |
| 1777775552 | 14.44° C | 29% | 1026 hPa | 0 mm | - | 0 W/m² | - |
| 1777775248 | 14.44° C | 29% | 1026.1 hPa | 0 mm | - | 0 W/m² | - |
| 1777774948 | 15° C | 28% | 1026.1 hPa | 0 mm | - | 1 W/m² | - |
| 1777774645 | 15.56° C | 27% | 1025.8 hPa | 0 mm | - | 1 W/m² | - |
* Rain latest hour (hover to see other rain measurements)
** Current wind speed in m/s (hover to see current wind gust speed)